HULIANWANG DIGUI-93 (66001 NORAD) Tracking and Keplerian Element Data

This shows tracking and keplerian element data for the satellite.

Feedback or suggestion? Click here.




ElementValue
Catalog66001
NameHULIANWANG DIGUI-93
Epoch Orbit906
Epoch Day354.2278306
Epoch Year2025
RAAN98.9174
Inclination50.002
Eccentricity4.63E-05
Argument of Perigee286.5452
Mean Anonmoly73.538
Mean Motion13.54796009
Decay Rate-9.1E-07
L11 66001U 25231G 25354.22783060 -.00000091 00000+0 61562-4 0 9997
L22 66001 50.0020 98.9174 0000463 286.5452 73.5380 13.54796009 9060



Live tracking and technical data element details for HULIANWANG DIGUI-93 (NORAD 66001). HULIANWANG DIGUI-93 can be tracked NOW for your location showing map with azimuth and elevation plus other details from your city location.







IsCatalogInMostPopularTable: catalog: 66001, numindb: 5
Update: records affected: 1



GetName: 66001 HULIANWANG DIGUI-93

Hit Count: updated at: Mon, 20 Apr 2026 09:26:34 GMT